Location: Bergheim
(50.9593°N, 6.6400°E)
Time: 07:36:26
(UTC+01:00)

ISS - Pass Details

Date: 22 November 2019
Orbit: 411 x 421 km, 51.6° (Epoch: 12 December)

Event Time Altitude Azimuth Distance (km) Brightness Sun altitude
Rises 18:25:28 0° 194° (SSW) 2,345 0.4 -16.4°
Reaches altitude 10° 18:28:31 10° 163° (SSE) 1,491 -1.0 -16.9°
Enters shadow 18:29:14 12° 151° (SSE) 1,392 -1.3 -17.0°
